map of MYJ home
MYJ - Airport
Location
City:  Matsuyama, Skikoku, Ehime, Japan
Name:Matsuyama Airport
ICAO:RJOM
IATA:MYJ

Details
Type:Airport (Aerodrome, Airfield)
Use:Public/Civil
Latitude:3349'38"N (33.827222)
Longitude:13241'59"E (132.699722)
Datum:WGS 1984
Elevation:25 ft (8 m)
Variation:7.58W (WMM2015 magnetic declination)
-0.07 annual change
Runways:1
Longest:8200 × 150 ft (2499 × 45.5 m), paved

Time
Time Zone:UTC+9
Local Time:

Weather
METAR:RJOM 122200Z 04008KT 9999 FEW020 BKN/// 13/12 Q1013
TAF:RJOM 121707Z 1218/1400 27004KT 9999 FEW020 BKN060
BECMG 1220/1222 01016KT

Related Locations
Nearby:
Farthest:SSMT: 12156 mi / 19562 km
Mostardas, RS, BR

Find:

   beyond  
but within

Other Information
Maps:
NOTAMs:
Links:
Sources:

  
  • flag of Japan
  • flag of Ehime
  • flag of Matsuyama
  

Sectional Chart

Flight Planning
at skyvector.com

Satellite Image

Google Maps Satellite view

 

Copyright © 2004-2018 Karl L. Swartz. All rights reserved.
The Great Circle Mapper name and logo are trademarks of the Great Circle Mapper.
All other trademarks mentioned herein belong to their respective owners.
Please see credits for attibutions and further copyright information.

  Follow gcmap on Facebook Follow gcmap on Twitter Follow gcmap on Google+ GCmap on LinkedIn

hCard Microformat

Geo Microformat